GW1572 Weather Reports


time (UTC)temp
C
wind
direction
speed
KPH
gust
KPH
rain 1hr
cm
rain 24hr
cm
rain mn
cm
humidity
%
barometer
mb
20260510054538 13 282 0.0 1.6 0.00 0.00 0.00 93 1003.3
20260510053314 13 261 0.0 0.0 0.00 0.00 0.00 93 1003.3
20260510052149 13 252 0.0 0.0 0.00 0.00 0.00 92 1003.3
20260510051548 13 256 0.0 0.0 0.00 0.00 0.00 92 1003.3
20260510050912 13 270 0.0 0.0 0.00 0.00 0.00 92 1003.3
20260510050332 14 269 0.0 0.0 0.00 0.00 0.00 91 1003.3
20260510045721 14 282 0.0 0.0 0.00 0.00 0.00 91 1003.7
20260510045110 14 200 0.0 0.0 0.00 0.00 0.00 91 1003.3
20260510043931 14 258 0.0 0.0 0.00 0.00 0.00 91 1003.7
20260510043338 14 271 0.0 0.0 0.00 0.00 0.00 91 1003.7
20260510042711 14 273 0.0 0.0 0.00 0.00 0.00 91 1003.7
20260510042145 14 241 0.0 0.0 0.00 0.00 0.00 91 1003.3
20260510041533 14 304 0.0 0.0 0.00 0.00 0.00 91 1003.3
20260510040924 14 260 0.0 0.0 0.00 0.00 0.00 91 1003.3
20260510040343 14 274 0.0 0.0 0.00 0.00 0.00 91 1003.7
20260510035747 14 266 0.0 0.0 0.00 0.00 0.00 91 1003.7
20260510035123 14 266 0.0 0.0 0.00 0.00 0.00 91 1003.7
20260510034541 14 220 0.0 1.6 0.00 0.00 0.00 91 1003.7
20260510033909 14 351 1.6 1.6 0.00 0.00 0.00 91 1003.7
20260510033316 14 322 0.0 1.6 0.00 0.00 0.00 91 1003.7
20260510032752 14 282 0.0 0.0 0.00 0.00 0.00 91 1003.7
20260510032147 14 295 0.0 0.0 0.00 0.00 0.00 91 1003.7
20260510031524 14 263 0.0 0.0 0.00 0.00 0.00 91 1003.3
20260510030919 14 278 0.0 0.0 0.00 0.00 0.00 91 1003.3
20260510030328 14 263 0.0 0.0 0.00 0.00 0.00 90 1003.3
20260510025732 14 260 0.0 0.0 0.00 0.00 0.00 90 1003.3
20260510025123 14 262 0.0 0.0 0.00 0.00 0.00 90 1003.3
20260510023940 15 330 0.0 0.0 0.00 0.00 0.00 90 1003.3
20260510022739 15 270 0.0 0.0 0.00 0.00 0.00 89 1003.0
20260510021510 15 271 0.0 0.0 0.00 0.00 0.00 88 1002.7
20260510020952 15 253 0.0 0.0 0.00 0.00 0.00 88 1002.7
20260510015740 15 274 0.0 0.0 0.00 0.00 0.00 87 1002.7
20260510015143 15 280 0.0 0.0 0.00 0.00 0.00 86 1002.7
20260510014511 15 274 0.0 0.0 0.00 0.00 0.00 86 1002.7
20260510013946 15 264 0.0 0.0 0.00 0.00 0.00 85 1002.3
20260510012725 16 293 0.0 0.0 0.00 0.00 0.00 85 1002.0
20260510012131 16 276 0.0 0.0 0.00 0.00 0.00 84 1002.0
20260510011556 16 271 0.0 0.0 0.00 0.00 0.00 84 1002.0
20260510010951 16 269 0.0 0.0 0.00 0.00 0.00 84 1001.6
20260510010348 16 262 0.0 0.0 0.00 0.00 0.00 83 1002.0
20260510005143 16 270 0.0 0.0 0.00 0.00 0.00 81 1001.6
20260510004550 17 275 0.0 0.0 0.00 0.00 0.00 80 1001.6
20260510003308 17 273 0.0 0.0 0.00 0.00 0.00 79 1001.6
20260510002716 18 5 0.0 1.6 0.00 0.00 0.00 78 1001.6
20260510001511 19 276 0.0 0.0 0.00 0.00 0.00 74 1001.0
20260510000943 20 277 0.0 0.0 0.00 0.00 0.00 71 1001.3
20260510000349 20 256 0.0 0.0 0.00 0.00 0.00 70 1001.0
20260509235710 21 286 1.6 3.2 0.00 0.00 0.00 65 1001.0
20260509235126 21 314 3.2 3.2 0.00 0.00 0.00 64 1001.0
20260509234543 21 13 4.8 9.7 0.00 0.00 0.00 63 1001.0
20260509233949 21 340 4.8 6.4 0.00 0.00 0.00 61 1001.0
20260509233339 22 16 1.6 1.6 0.00 0.00 0.00 61 1001.0
20260509232130 22 348 3.2 4.8 0.00 0.00 0.00 61 1001.0
20260509231509 22 297 1.6 3.2 0.00 0.00 0.00 61 1001.0
20260509230951 23 236 1.6 3.2 0.00 0.00 0.00 58 1001.0
20260509230332 23 350 1.6 1.6 0.00 0.00 0.00 60 1001.0
20260509225146 22 329 3.2 4.8 0.00 0.00 0.00 58 1001.0
20260509224535 22 31 8.0 9.7 0.00 0.00 0.00 57 1001.0
20260509223928 22 332 4.8 4.8 0.00 0.00 0.00 58 1001.0
20260509223343 22 305 4.8 6.4 0.00 0.00 0.00 59 1001.0
20260509222130 23 280 4.8 6.4 0.00 0.00 0.00 58 1001.0
20260509220917 23 18 1.6 1.6 0.00 0.00 0.00 57 1000.6
20260509220325 23 335 3.2 3.2 0.00 0.00 0.00 56 1001.0
20260509215723 23 13 4.8 4.8 0.00 0.00 0.00 55 1001.0
20260509215134 23 339 6.4 6.4 0.00 0.00 0.00 56 1001.0
20260509214520 23 286 14.5 16.1 0.00 0.00 0.00 56 1001.3
20260509213334 23 312 4.8 6.4 0.00 0.00 0.00 56 1001.0
20260509212738 23 299 3.2 3.2 0.00 0.00 0.00 57 1001.0
20260509212145 22 26 8.0 11.3 0.00 0.00 0.00 57 1001.3
20260509211542 23 324 6.4 6.4 0.00 0.00 0.00 57 1001.3
20260509210931 21 302 3.2 3.2 0.00 0.00 0.00 61 1001.0
20260509210318 22 9 6.4 6.4 0.00 0.00 0.00 59 1001.3
20260509205747 22 358 4.8 6.4 0.00 0.00 0.00 58 1001.0
20260509205134 22 299 4.8 4.8 0.00 0.00 0.00 57 1001.0
20260509204537 22 296 1.6 1.6 0.00 0.00 0.00 60 1001.0
20260509203950 22 308 6.4 9.7 0.00 0.00 0.00 59 1001.3
20260509203321 21 3 3.2 3.2 0.00 0.00 0.00 60 1001.3
20260509202753 22 320 3.2 3.2 0.00 0.00 0.00 61 1001.0
20260509202126 22 290 9.7 12.9 0.00 0.00 0.00 57 1001.3
20260509201532 22 341 6.4 6.4 0.00 0.00 0.00 59 1001.3
20260509200939 21 302 6.4 9.7 0.00 0.00 0.00 63 1001.0
20260509200309 22 5 6.4 6.4 0.00 0.00 0.00 60 1001.3
20260509195125 22 345 6.4 9.7 0.00 0.00 0.00 62 1001.3
20260509193915 21 301 4.8 4.8 0.00 0.00 0.00 64 1001.6
20260509193337 21 355 3.2 3.2 0.00 0.00 0.00 66 1001.6
20260509192748 21 13 8.0 11.3 0.00 0.00 0.00 62 1001.6
20260509191528 21 351 6.4 11.3 0.00 0.00 0.00 62 1001.6
20260509190313 21 322 6.4 6.4 0.00 0.00 0.00 64 1001.6
20260509185750 21 1 6.4 12.9 0.00 0.00 0.00 63 1001.6
20260509185114 21 348 3.2 4.8 0.00 0.00 0.00 64 1001.6
20260509184531 21 352 1.6 3.2 0.00 0.00 0.00 66 1001.6
20260509183936 21 329 4.8 4.8 0.00 0.00 0.00 68 1001.6
20260509183343 20 19 8.0 9.7 0.00 0.00 0.00 66 1001.6
20260509182727 20 13 6.4 9.7 0.00 0.00 0.00 68 1001.6
20260509182153 20 303 9.7 12.9 0.00 0.00 0.00 66 1001.6
20260509181515 20 26 6.4 6.4 0.00 0.00 0.00 69 1001.6
20260509180942 20 9 6.4 6.4 0.00 0.00 0.00 67 1001.6
20260509180315 20 357 8.0 11.3 0.00 0.00 0.00 67 1001.6
20260509175737 19 319 4.8 4.8 0.00 0.00 0.00 69 1001.6
20260509175152 19 332 6.4 9.7 0.00 0.00 0.00 68 1001.6
20260509174526 19 342 6.4 6.4 0.00 0.00 0.00 70 1002.0
20260509173310 19 352 3.2 3.2 0.00 0.00 0.00 69 1002.0
20260509172726 18 323 4.8 4.8 0.00 0.00 0.00 71 1002.0
20260509171510 17 14 3.2 4.8 0.00 0.00 0.00 70 1002.0
20260509170921 18 325 6.4 9.7 0.00 0.00 0.00 70 1002.0
20260509170323 18 350 6.4 11.3 0.00 0.00 0.00 69 1002.3
20260509165719 17 328 3.2 3.2 0.00 0.00 0.00 68 1002.3
20260509165132 17 321 6.4 6.4 0.00 0.00 0.00 70 1002.3
20260509164539 17 13 3.2 4.8 0.00 0.00 0.00 71 1002.3
20260509163934 17 12 3.2 3.2 0.00 0.00 0.00 71 1002.7
20260509162115 17 344 4.8 6.4 0.00 0.00 0.00 70 1002.3
20260509161540 17 273 3.2 3.2 0.00 0.00 0.00 72 1002.7
20260509160930 17 299 4.8 6.4 0.00 0.00 0.00 71 1002.7
20260509160345 17 330 3.2 3.2 0.00 0.00 0.00 72 1002.3
20260509155716 17 341 1.6 3.2 0.00 0.00 0.00 71 1002.0
20260509154540 17 356 3.2 3.2 0.00 0.00 0.00 69 1002.0
20260509153940 17 307 3.2 3.2 0.00 0.00 0.00 71 1002.0
20260509153324 17 327 3.2 4.8 0.00 0.00 0.00 72 1002.0
20260509152127 16 314 1.6 3.2 0.00 0.00 0.00 71 1002.0
20260509150915 16 318 0.0 1.6 0.00 0.00 0.00 73 1002.0
20260509150315 16 315 1.6 1.6 0.00 0.00 0.00 74 1002.0
20260509145740 16 281 0.0 0.0 0.00 0.00 0.00 77 1002.0
20260509145127 16 264 0.0 0.0 0.00 0.00 0.00 76 1002.0
20260509144508 16 275 0.0 0.0 0.00 0.00 0.00 79 1002.0
20260509143907 15 277 0.0 0.0 0.00 0.00 0.00 77 1002.0
20260509142746 15 270 0.0 0.0 0.00 0.00 0.00 79 1002.0
20260509141517 15 279 0.0 0.0 0.00 0.00 0.00 82 1002.0
20260509140924 15 292 0.0 0.0 0.00 0.00 0.00 82 1002.3
20260509140344 15 280 0.0 0.0 0.00 0.00 0.00 81 1002.3
20260509135710 15 279 0.0 0.0 0.00 0.00 0.00 81 1002.7
20260509135112 15 273 0.0 0.0 0.00 0.00 0.00 80 1002.7
20260509134545 15 287 0.0 0.0 0.00 0.00 0.00 78 1002.7
20260509133914 15 300 1.6 1.6 0.00 0.00 0.00 79 1002.7
20260509132743 15 289 1.6 3.2 0.00 0.00 0.00 80 1002.0
20260509132132 15 273 0.0 1.6 0.00 0.00 0.00 80 1001.6
20260509131511 15 275 0.0 1.6 0.00 0.00 0.00 81 1002.0
20260509130917 14 259 0.0 1.6 0.00 0.00 0.00 82 1001.6
20260509130311 14 234 1.6 1.6 0.00 0.00 0.00 81 1001.6
20260509125721 14 263 0.0 1.6 0.00 0.00 0.00 82 1002.0
20260509125123 13 274 1.6 1.6 0.00 0.00 0.00 85 1002.3
20260509123935 13 286 1.6 1.6 0.00 0.00 0.00 85 1002.0
20260509123351 13 288 1.6 1.6 0.00 0.00 0.00 86 1002.0
20260509122746 13 272 0.0 0.0 0.00 0.00 0.00 87 1002.0
20260509122142 13 265 0.0 0.0 0.00 0.00 0.00 86 1002.3
20260509121510 13 265 0.0 0.0 0.00 0.00 0.00 87 1002.3
20260509120914 12 263 0.0 0.0 0.00 0.00 0.00 87 1002.3
20260509120320 12 257 0.0 1.6 0.00 0.00 0.00 88 1002.3
20260509115739 12 266 0.0 0.0 0.00 0.00 0.00 88 1002.3
20260509115121 12 250 0.0 0.0 0.00 0.00 0.00 88 1002.3
20260509113926 12 276 0.0 0.0 0.00 0.00 0.00 89 1002.0
20260509113325 12 276 0.0 0.0 0.00 0.00 0.00 90 1002.0
20260509112131 11 268 0.0 0.0 0.00 0.00 0.00 90 1002.0
20260509110934 11 269 0.0 0.0 0.00 0.00 0.00 90 1002.0
20260509110313 11 268 0.0 0.0 0.00 0.00 0.00 90 1002.0
20260509104545 11 262 0.0 0.0 0.00 0.00 0.00 90 1002.0
20260509103940 11 261 0.0 0.0 0.00 0.00 0.00 90 1001.6
20260509103313 11 286 0.0 0.0 0.00 0.00 0.00 90 1002.0
20260509102735 11 265 0.0 0.0 0.00 0.00 0.00 90 1002.0
20260509102123 11 258 0.0 0.0 0.00 0.00 0.00 90 1002.0
20260509101514 11 207 1.6 1.6 0.00 0.00 0.00 89 1001.6
20260509100920 11 210 1.6 3.2 0.00 0.00 0.00 89 1001.6
20260509100325 11 277 0.0 0.0 0.00 0.00 0.00 88 1001.3
20260509095736 11 274 0.0 0.0 0.00 0.00 0.00 88 1001.6
20260509095147 11 276 0.0 0.0 0.00 0.00 0.00 87 1001.6
20260509094533 11 283 0.0 0.0 0.00 0.00 0.00 87 1001.6
20260509093330 11 276 0.0 0.0 0.00 0.00 0.00 87 1001.6
20260509092117 11 271 0.0 0.0 0.00 0.00 0.00 86 1002.0
20260509090945 11 283 0.0 0.0 0.00 0.00 0.00 86 1001.6
20260509090350 11 284 1.6 1.6 0.00 0.00 0.00 85 1001.6
20260509085712 11 273 0.0 0.0 0.00 0.00 0.00 85 1001.3
20260509085139 11 262 0.0 0.0 0.00 0.00 0.00 86 1001.6
20260509084532 11 266 0.0 0.0 0.00 0.00 0.00 86 1001.6
20260509083918 11 266 0.0 0.0 0.00 0.00 0.00 86 1001.6
20260509083337 11 268 0.0 0.0 0.00 0.00 0.00 85 1001.6
20260509082747 11 268 0.0 0.0 0.00 0.00 0.00 84 1002.0
20260509080323 12 268 0.0 0.0 0.00 0.00 0.00 83 1002.0
20260509075754 12 266 0.0 0.0 0.00 0.00 0.00 82 1002.0
20260509075135 12 263 0.0 0.0 0.00 0.00 0.00 82 1002.0
20260509073323 12 269 0.0 0.0 0.00 0.00 0.00 81 1002.0
20260509072738 12 301 0.0 0.0 0.00 0.00 0.00 81 1001.6
20260509071519 12 321 0.0 0.0 0.00 0.00 0.00 81 1002.0
20260509070324 12 265 0.0 0.0 0.00 0.00 0.00 81 1002.3
20260509065751 12 266 0.0 0.0 0.00 0.00 0.00 81 1002.0
20260509064519 12 266 0.0 0.0 0.00 0.00 0.00 81 1002.0
20260509063913 12 266 0.0 0.0 0.00 0.00 0.00 81 1002.0
20260509063311 12 266 0.0 0.0 0.00 0.00 0.00 80 1002.0
20260509062719 12 193 0.0 0.0 0.00 0.00 0.00 80 1002.0
20260509062128 12 213 0.0 0.0 0.00 0.00 0.00 80 1002.0
20260509060912 12 233 0.0 0.0 0.00 0.00 0.00 79 1002.0
20260509060335 12 270 0.0 0.0 0.00 0.00 0.00 78 1002.0